Year,Month,Day,Hour,Minute,Value (Times are PST for temperature in C)
2014,09,15,00,00,11.80
2014,09,15,00,01,11.70
2014,09,15,00,02,11.70
2014,09,15,00,03,11.70
2014,09,15,00,04,11.70
2014,09,15,00,05,11.70
2014,09,15,00,06,11.70
2014,09,15,00,07,11.70
2014,09,15,00,08,11.70
2014,09,15,00,09,11.70
2014,09,15,00,10,11.70
2014,09,15,00,11,11.70
2014,09,15,00,12,11.70
2014,09,15,00,13,11.60
2014,09,15,00,14,11.60
2014,09,15,00,15,11.60
2014,09,15,00,16,11.60
2014,09,15,00,17,11.60
2014,09,15,00,18,11.60
2014,09,15,00,19,11.50
2014,09,15,00,20,11.40
2014,09,15,00,21,11.40
2014,09,15,00,22,11.40
2014,09,15,00,23,11.40
2014,09,15,00,24,11.40
2014,09,15,00,25,11.40
2014,09,15,00,26,11.40
2014,09,15,00,27,11.40
2014,09,15,00,28,11.40
2014,09,15,00,29,11.40
2014,09,15,00,30,11.40
2014,09,15,00,31,11.40
2014,09,15,00,32,11.30
2014,09,15,00,33,11.30
2014,09,15,00,34,11.30
2014,09,15,00,35,11.30
2014,09,15,00,36,11.30
2014,09,15,00,37,11.20
2014,09,15,00,38,11.20
2014,09,15,00,39,11.20
2014,09,15,00,40,11.20
2014,09,15,00,41,11.10
2014,09,15,00,42,11.10
2014,09,15,00,43,11.10
2014,09,15,00,44,11.10
2014,09,15,00,45,11.00
2014,09,15,00,46,10.90
2014,09,15,00,47,10.90
2014,09,15,00,48,10.90
2014,09,15,00,49,10.90
2014,09,15,00,50,10.90
2014,09,15,00,51,10.80
2014,09,15,00,52,10.80
2014,09,15,00,53,10.80
2014,09,15,00,54,10.70
2014,09,15,00,55,10.70
2014,09,15,00,56,10.70
2014,09,15,00,57,10.70
2014,09,15,00,58,10.60
2014,09,15,00,59,10.60
2014,09,15,01,00,10.60
2014,09,15,01,01,10.60
2014,09,15,01,02,10.60
2014,09,15,01,03,10.60
2014,09,15,01,04,10.60
2014,09,15,01,05,10.60
2014,09,15,01,06,10.60
2014,09,15,01,07,10.60
2014,09,15,01,08,10.60
2014,09,15,01,09,10.70
2014,09,15,01,10,10.70
2014,09,15,01,11,10.70
2014,09,15,01,12,10.70
2014,09,15,01,13,10.80
2014,09,15,01,14,10.80
2014,09,15,01,15,10.80
2014,09,15,01,16,10.90
2014,09,15,01,17,10.90
2014,09,15,01,18,10.90
2014,09,15,01,19,10.90
2014,09,15,01,20,10.90
2014,09,15,01,21,10.90
2014,09,15,01,22,10.90
2014,09,15,01,23,10.90
2014,09,15,01,24,10.90
2014,09,15,01,25,10.80
2014,09,15,01,26,10.80
2014,09,15,01,27,10.80
2014,09,15,01,28,10.80
2014,09,15,01,29,10.70
2014,09,15,01,30,10.70
2014,09,15,01,31,10.70
2014,09,15,01,32,10.60
2014,09,15,01,33,10.60
2014,09,15,01,34,10.60
2014,09,15,01,35,10.60
2014,09,15,01,36,10.60
2014,09,15,01,37,10.60
2014,09,15,01,38,10.60
2014,09,15,01,39,10.50
2014,09,15,01,40,10.40
2014,09,15,01,41,10.40
2014,09,15,01,42,10.40
2014,09,15,01,43,10.40
2014,09,15,01,44,10.40
2014,09,15,01,45,10.40
2014,09,15,01,46,10.40
2014,09,15,01,47,10.40
2014,09,15,01,48,10.40
2014,09,15,01,49,10.30
2014,09,15,01,50,10.20
2014,09,15,01,51,10.20
2014,09,15,01,52,10.20
2014,09,15,01,53,10.20
2014,09,15,01,54,10.10
2014,09,15,01,55,10.10
2014,09,15,01,56,10.10
2014,09,15,01,57,10.10
2014,09,15,01,58,10.10
2014,09,15,01,59,10.10
2014,09,15,02,00,10.10
2014,09,15,02,01,10.10
2014,09,15,02,02,10.10
2014,09,15,02,03,10.10
2014,09,15,02,04,10.10
2014,09,15,02,05,10.10
2014,09,15,02,06,10.10
2014,09,15,02,07,10.10
2014,09,15,02,08,10.10
2014,09,15,02,09,10.10
2014,09,15,02,10,10.10
2014,09,15,02,11,10.10
2014,09,15,02,12,10.10
2014,09,15,02,13,10.10
2014,09,15,02,14,10.10
2014,09,15,02,15,10.10
2014,09,15,02,16,10.10
2014,09,15,02,17,10.00
2014,09,15,02,18,9.90
2014,09,15,02,19,9.90
2014,09,15,02,20,9.90
2014,09,15,02,21,9.90
2014,09,15,02,22,9.90
2014,09,15,02,23,9.90
2014,09,15,02,24,9.90
2014,09,15,02,25,9.90
2014,09,15,02,26,9.80
2014,09,15,02,27,9.80
2014,09,15,02,28,9.80
2014,09,15,02,29,9.80
2014,09,15,02,30,9.80
2014,09,15,02,31,9.80
2014,09,15,02,32,9.80
2014,09,15,02,33,9.90
2014,09,15,02,34,9.80
2014,09,15,02,35,9.80
2014,09,15,02,36,9.80
2014,09,15,02,37,9.80
2014,09,15,02,38,9.80
2014,09,15,02,39,9.80
2014,09,15,02,40,9.80
2014,09,15,02,41,9.70
2014,09,15,02,42,9.70
2014,09,15,02,43,9.70
2014,09,15,02,44,9.70
2014,09,15,02,45,9.70
2014,09,15,02,46,9.70
2014,09,15,02,47,9.70
2014,09,15,02,48,9.70
2014,09,15,02,49,9.70
2014,09,15,02,50,9.70
2014,09,15,02,51,9.70
2014,09,15,02,52,9.70
2014,09,15,02,53,9.70
2014,09,15,02,54,9.70
2014,09,15,02,55,9.70
2014,09,15,02,56,9.70
2014,09,15,02,57,9.70
2014,09,15,02,58,9.70
2014,09,15,02,59,9.70
2014,09,15,03,00,9.70
2014,09,15,03,01,9.70
2014,09,15,03,02,9.60
2014,09,15,03,03,9.60
2014,09,15,03,04,9.60
2014,09,15,03,05,9.60
2014,09,15,03,06,9.60
2014,09,15,03,07,9.60
2014,09,15,03,08,9.60
2014,09,15,03,09,9.60
2014,09,15,03,10,9.60
2014,09,15,03,11,9.60
2014,09,15,03,12,9.60
2014,09,15,03,13,9.60
2014,09,15,03,14,9.60
2014,09,15,03,15,9.60
2014,09,15,03,16,9.60
2014,09,15,03,17,9.60
2014,09,15,03,18,9.60
2014,09,15,03,19,9.60
2014,09,15,03,20,9.60
2014,09,15,03,21,9.60
2014,09,15,03,22,9.60
2014,09,15,03,23,9.60
2014,09,15,03,24,9.60
2014,09,15,03,25,9.50
2014,09,15,03,26,9.50
2014,09,15,03,27,9.50
2014,09,15,03,28,9.50
2014,09,15,03,29,9.50
2014,09,15,03,30,9.40
2014,09,15,03,31,9.40
2014,09,15,03,32,9.40
2014,09,15,03,33,9.40
2014,09,15,03,34,9.40
2014,09,15,03,35,9.40
2014,09,15,03,36,9.40
2014,09,15,03,37,9.40
2014,09,15,03,38,9.40
2014,09,15,03,39,9.40
2014,09,15,03,40,9.40
2014,09,15,03,41,9.40
2014,09,15,03,42,9.40
2014,09,15,03,43,9.50
2014,09,15,03,44,9.50
2014,09,15,03,45,9.50
2014,09,15,03,46,9.50
2014,09,15,03,47,9.50
2014,09,15,03,48,9.50
2014,09,15,03,49,9.50
2014,09,15,03,50,9.50
2014,09,15,03,51,9.50
2014,09,15,03,52,9.50
2014,09,15,03,53,9.50
2014,09,15,03,54,9.50
2014,09,15,03,55,9.50
2014,09,15,03,56,9.50
2014,09,15,03,57,9.60
2014,09,15,03,58,9.60
2014,09,15,03,59,9.50
2014,09,15,04,00,9.50
2014,09,15,04,01,9.50
2014,09,15,04,02,9.50
2014,09,15,04,03,9.50
2014,09,15,04,04,9.50
2014,09,15,04,05,9.50
2014,09,15,04,06,9.50
2014,09,15,04,07,9.50
2014,09,15,04,08,9.50
2014,09,15,04,09,9.50
2014,09,15,04,10,9.50
2014,09,15,04,11,9.50
2014,09,15,04,12,9.50
2014,09,15,04,13,9.50
2014,09,15,04,14,9.50
2014,09,15,04,15,9.50
2014,09,15,04,16,9.50
2014,09,15,04,17,9.40
2014,09,15,04,18,9.40
2014,09,15,04,19,9.40
2014,09,15,04,20,9.40
2014,09,15,04,21,9.40
2014,09,15,04,22,9.30
2014,09,15,04,23,9.30
2014,09,15,04,24,9.30
2014,09,15,04,25,9.20
2014,09,15,04,26,9.20
2014,09,15,04,27,9.20
2014,09,15,04,28,9.20
2014,09,15,04,29,9.20
2014,09,15,04,30,9.20
2014,09,15,04,31,9.20
2014,09,15,04,32,9.20
2014,09,15,04,33,9.20
2014,09,15,04,34,9.20
2014,09,15,04,35,9.10
2014,09,15,04,36,9.10
2014,09,15,04,37,9.10
2014,09,15,04,38,9.10
2014,09,15,04,39,9.10
2014,09,15,04,40,9.10
2014,09,15,04,41,9.10
2014,09,15,04,42,9.10
2014,09,15,04,43,9.10
2014,09,15,04,44,9.10
2014,09,15,04,45,9.00
2014,09,15,04,46,9.00
2014,09,15,04,47,9.00
2014,09,15,04,48,9.00
2014,09,15,04,49,9.00
2014,09,15,04,50,9.00
2014,09,15,04,51,9.00
2014,09,15,04,52,9.00
2014,09,15,04,53,9.00
2014,09,15,04,54,9.00
2014,09,15,04,55,9.00
2014,09,15,04,56,9.00
2014,09,15,04,57,9.00
2014,09,15,04,58,8.90
2014,09,15,04,59,8.90
2014,09,15,05,00,8.90
2014,09,15,05,01,8.90
2014,09,15,05,02,8.90
2014,09,15,05,03,8.90
2014,09,15,05,04,8.90
2014,09,15,05,05,8.90
2014,09,15,05,06,8.90
2014,09,15,05,07,8.90
2014,09,15,05,08,8.90
2014,09,15,05,09,8.90
2014,09,15,05,10,8.80
2014,09,15,05,11,8.80
2014,09,15,05,12,8.80
2014,09,15,05,13,8.80
2014,09,15,05,14,8.80
2014,09,15,05,15,8.80
2014,09,15,05,16,8.80
2014,09,15,05,17,8.80
2014,09,15,05,18,8.80
2014,09,15,05,19,8.80
2014,09,15,05,20,8.80
2014,09,15,05,21,8.70
2014,09,15,05,22,8.70
2014,09,15,05,23,8.70
2014,09,15,05,24,8.70
2014,09,15,05,25,8.70
2014,09,15,05,26,8.70
2014,09,15,05,27,8.70
2014,09,15,05,28,8.70
2014,09,15,05,29,8.70
2014,09,15,05,30,8.70
2014,09,15,05,31,8.70
2014,09,15,05,32,8.70
2014,09,15,05,33,8.70
2014,09,15,05,34,8.70
2014,09,15,05,35,8.70
2014,09,15,05,36,8.70
2014,09,15,05,37,8.70
2014,09,15,05,38,8.70
2014,09,15,05,39,8.70
2014,09,15,05,40,8.70
2014,09,15,05,41,8.70
2014,09,15,05,42,8.70
2014,09,15,05,43,8.70
2014,09,15,05,44,8.70
2014,09,15,05,45,8.70
2014,09,15,05,46,8.70
2014,09,15,05,47,8.70
2014,09,15,05,48,8.70
2014,09,15,05,49,8.70
2014,09,15,05,50,8.70
2014,09,15,05,51,8.70
2014,09,15,05,52,8.70
2014,09,15,05,53,8.70
2014,09,15,05,54,8.70
2014,09,15,05,55,8.70
2014,09,15,05,56,8.80
2014,09,15,05,57,8.80
2014,09,15,05,58,8.80
2014,09,15,05,59,8.80
2014,09,15,06,00,8.80
2014,09,15,06,01,8.80
2014,09,15,06,02,8.80
2014,09,15,06,03,8.70
2014,09,15,06,04,8.70
2014,09,15,06,05,8.70
2014,09,15,06,06,8.70
2014,09,15,06,07,8.70
2014,09,15,06,08,8.70
2014,09,15,06,09,8.70
2014,09,15,06,10,8.70
2014,09,15,06,11,8.70
2014,09,15,06,12,8.70
2014,09,15,06,13,8.60
2014,09,15,06,14,8.60
2014,09,15,06,15,8.60
2014,09,15,06,16,8.60
2014,09,15,06,17,8.50
2014,09,15,06,18,8.50
2014,09,15,06,19,8.50
2014,09,15,06,20,8.50
2014,09,15,06,21,8.50
2014,09,15,06,22,8.50
2014,09,15,06,23,8.50
2014,09,15,06,24,8.50
2014,09,15,06,25,8.50
2014,09,15,06,26,8.50
2014,09,15,06,27,8.60
2014,09,15,06,28,8.60
2014,09,15,06,29,8.60
2014,09,15,06,30,8.60
2014,09,15,06,31,8.60
2014,09,15,06,32,8.60
2014,09,15,06,33,8.60
2014,09,15,06,34,8.50
2014,09,15,06,35,8.50
2014,09,15,06,36,8.50
2014,09,15,06,37,8.50
2014,09,15,06,38,8.50
2014,09,15,06,39,8.50
2014,09,15,06,40,8.40
2014,09,15,06,41,8.40
2014,09,15,06,42,8.40
2014,09,15,06,43,8.40
2014,09,15,06,44,8.30
2014,09,15,06,45,8.30
2014,09,15,06,46,8.30
2014,09,15,06,47,8.30
2014,09,15,06,48,8.20
2014,09,15,06,49,8.20
2014,09,15,06,50,8.20
2014,09,15,06,51,8.20
2014,09,15,06,52,8.20
2014,09,15,06,53,8.20
2014,09,15,06,54,8.20
2014,09,15,06,55,8.20
2014,09,15,06,56,8.20
2014,09,15,06,57,8.20
2014,09,15,06,58,8.20
2014,09,15,06,59,8.20
2014,09,15,07,00,8.20
2014,09,15,07,01,8.20
2014,09,15,07,02,8.20
2014,09,15,07,03,8.20
2014,09,15,07,04,8.20
2014,09,15,07,05,8.20
2014,09,15,07,06,8.20
2014,09,15,07,07,8.20
2014,09,15,07,08,8.20
2014,09,15,07,09,8.30
2014,09,15,07,10,8.30
2014,09,15,07,11,8.30
2014,09,15,07,12,8.30
2014,09,15,07,13,8.40
2014,09,15,07,14,8.40
2014,09,15,07,15,8.50
2014,09,15,07,16,8.50
2014,09,15,07,17,8.60
2014,09,15,07,18,8.60
2014,09,15,07,19,8.70
2014,09,15,07,20,8.70
2014,09,15,07,21,8.70
2014,09,15,07,22,8.80
2014,09,15,07,23,8.80
2014,09,15,07,24,8.90
2014,09,15,07,25,8.90
2014,09,15,07,26,9.00
2014,09,15,07,27,9.00
2014,09,15,07,28,9.10
2014,09,15,07,29,9.10
2014,09,15,07,30,9.20
2014,09,15,07,31,9.20
2014,09,15,07,32,9.20
2014,09,15,07,33,9.30
2014,09,15,07,34,9.40
2014,09,15,07,35,9.40
2014,09,15,07,36,9.50
2014,09,15,07,37,9.50
2014,09,15,07,38,9.60
2014,09,15,07,39,9.70
2014,09,15,07,40,9.70
2014,09,15,07,41,9.70
2014,09,15,07,42,9.80
2014,09,15,07,43,9.90
2014,09,15,07,44,10.00
2014,09,15,07,45,10.10
2014,09,15,07,46,10.20
2014,09,15,07,47,10.30
2014,09,15,07,48,10.40
2014,09,15,07,49,10.40
2014,09,15,07,50,10.50
2014,09,15,07,51,10.60
2014,09,15,07,52,10.70
2014,09,15,07,53,10.80
2014,09,15,07,54,10.90
2014,09,15,07,55,11.00
2014,09,15,07,56,11.10
2014,09,15,07,57,11.10
2014,09,15,07,58,11.20
2014,09,15,07,59,11.30
2014,09,15,08,00,11.40
2014,09,15,08,01,11.50
2014,09,15,08,02,11.70
2014,09,15,08,03,11.80
2014,09,15,08,04,11.90
2014,09,15,08,05,12.00
2014,09,15,08,06,12.10
2014,09,15,08,07,12.20
2014,09,15,08,08,12.30
2014,09,15,08,09,12.40
2014,09,15,08,10,12.60
2014,09,15,08,11,12.70
2014,09,15,08,12,12.80
2014,09,15,08,13,12.80
2014,09,15,08,14,12.90
2014,09,15,08,15,13.00
2014,09,15,08,16,13.10
2014,09,15,08,17,13.20
2014,09,15,08,18,13.30
2014,09,15,08,19,13.40
2014,09,15,08,20,13.50
2014,09,15,08,21,13.50
2014,09,15,08,22,13.60
2014,09,15,08,23,13.60
2014,09,15,08,24,13.70
2014,09,15,08,25,13.80
2014,09,15,08,26,14.00
2014,09,15,08,27,14.10
2014,09,15,08,28,14.20
2014,09,15,08,29,14.30
2014,09,15,08,30,14.50
2014,09,15,08,31,14.70
2014,09,15,08,32,14.80
2014,09,15,08,33,15.00
2014,09,15,08,34,15.10
2014,09,15,08,35,15.20
2014,09,15,08,36,15.30
2014,09,15,08,37,15.40
2014,09,15,08,38,15.40
2014,09,15,08,39,15.50
2014,09,15,08,40,15.60
2014,09,15,08,41,15.60
2014,09,15,08,42,15.70
2014,09,15,08,43,15.80
2014,09,15,08,44,15.90
2014,09,15,08,45,16.00
2014,09,15,08,46,16.10
2014,09,15,08,47,16.20
2014,09,15,08,48,16.30
2014,09,15,08,49,16.40
2014,09,15,08,50,16.40
2014,09,15,08,51,16.50
2014,09,15,08,52,16.60
2014,09,15,08,53,16.60
2014,09,15,08,54,16.70
2014,09,15,08,55,16.80
2014,09,15,08,56,16.90
2014,09,15,08,57,17.00
2014,09,15,08,58,17.10
2014,09,15,08,59,17.30
2014,09,15,09,00,17.40
2014,09,15,09,01,17.50
2014,09,15,09,02,17.70
2014,09,15,09,03,17.80
2014,09,15,09,04,18.00
2014,09,15,09,05,18.10
2014,09,15,09,06,18.30
2014,09,15,09,07,18.50
2014,09,15,09,08,18.60
2014,09,15,09,09,18.80
2014,09,15,09,10,19.00
2014,09,15,09,11,19.10
2014,09,15,09,12,19.30
2014,09,15,09,13,19.50
2014,09,15,09,14,19.60
2014,09,15,09,15,19.80
2014,09,15,09,16,19.90
2014,09,15,09,17,20.00
2014,09,15,09,18,20.20
2014,09,15,09,19,20.20
2014,09,15,09,20,20.20
2014,09,15,09,21,20.30
2014,09,15,09,22,20.40
2014,09,15,09,23,20.40
2014,09,15,09,24,20.40
2014,09,15,09,25,20.40
2014,09,15,09,26,20.40
2014,09,15,09,27,20.50
2014,09,15,09,28,20.50
2014,09,15,09,29,20.50
2014,09,15,09,30,20.50
2014,09,15,09,31,20.50
2014,09,15,09,32,20.50
2014,09,15,09,33,20.50
2014,09,15,09,34,20.60
2014,09,15,09,35,20.60
2014,09,15,09,36,20.70
2014,09,15,09,37,20.70
2014,09,15,09,38,20.70
2014,09,15,09,39,20.80
2014,09,15,09,40,20.80
2014,09,15,09,41,20.80
2014,09,15,09,42,20.90
2014,09,15,09,43,20.90
2014,09,15,09,44,21.00
2014,09,15,09,45,21.00
2014,09,15,09,46,21.10
2014,09,15,09,47,21.10
2014,09,15,09,48,21.10
2014,09,15,09,49,21.20
2014,09,15,09,50,21.20
2014,09,15,09,51,21.30
2014,09,15,09,52,21.30
2014,09,15,09,53,21.30
2014,09,15,09,54,21.30
2014,09,15,09,55,21.30
2014,09,15,09,56,21.40
2014,09,15,09,57,21.40
2014,09,15,09,58,21.40
2014,09,15,09,59,21.40
2014,09,15,10,00,21.50
2014,09,15,10,01,21.60
2014,09,15,10,02,21.60
2014,09,15,10,03,21.60
2014,09,15,10,04,21.60
2014,09,15,10,05,21.60
2014,09,15,10,06,21.70
2014,09,15,10,07,21.70
2014,09,15,10,08,21.80
2014,09,15,10,09,21.80
2014,09,15,10,10,21.90
2014,09,15,10,11,21.90
2014,09,15,10,12,22.00
2014,09,15,10,13,22.00
2014,09,15,10,14,22.00
2014,09,15,10,15,22.00
2014,09,15,10,16,22.10
2014,09,15,10,17,22.10
2014,09,15,10,18,22.20
2014,09,15,10,19,22.20
2014,09,15,10,20,22.20
2014,09,15,10,21,22.20
2014,09,15,10,22,22.30
2014,09,15,10,23,22.30
2014,09,15,10,24,22.30
2014,09,15,10,25,22.30
2014,09,15,10,26,22.30
2014,09,15,10,27,22.40
2014,09,15,10,28,22.40
2014,09,15,10,29,22.40
2014,09,15,10,30,22.30
2014,09,15,10,31,22.40
2014,09,15,10,32,22.40
2014,09,15,10,33,22.40
2014,09,15,10,34,22.40
2014,09,15,10,35,22.40
2014,09,15,10,36,22.40
2014,09,15,10,37,22.40
2014,09,15,10,38,22.40
2014,09,15,10,39,22.50
2014,09,15,10,40,22.60
2014,09,15,10,41,22.60
2014,09,15,10,42,22.70
2014,09,15,10,43,22.70
2014,09,15,10,44,22.70
2014,09,15,10,45,22.70
2014,09,15,10,46,22.70
2014,09,15,10,47,22.70
2014,09,15,10,48,22.70
2014,09,15,10,49,22.70
2014,09,15,10,50,22.70
2014,09,15,10,51,22.70
2014,09,15,10,52,22.70
2014,09,15,10,53,22.80
2014,09,15,10,54,22.90
2014,09,15,10,55,22.90
2014,09,15,10,56,22.90
2014,09,15,10,57,22.90
2014,09,15,10,58,22.90
2014,09,15,10,59,22.90
2014,09,15,11,00,23.00
2014,09,15,11,01,23.10
2014,09,15,11,02,23.10
2014,09,15,11,03,23.10
2014,09,15,11,04,23.00
2014,09,15,11,05,22.90
2014,09,15,11,06,22.90
2014,09,15,11,07,22.90
2014,09,15,11,08,22.90
2014,09,15,11,09,22.90
2014,09,15,11,10,22.90
2014,09,15,11,11,22.90
2014,09,15,11,12,23.00
2014,09,15,11,13,23.10
2014,09,15,11,14,23.10
2014,09,15,11,15,23.10
2014,09,15,11,16,23.10
2014,09,15,11,17,23.10
2014,09,15,11,18,23.10
2014,09,15,11,19,23.10
2014,09,15,11,20,23.10
2014,09,15,11,21,23.10
2014,09,15,11,22,23.10
2014,09,15,11,23,23.20
2014,09,15,11,24,23.20
2014,09,15,11,25,23.30
2014,09,15,11,26,23.30
2014,09,15,11,27,23.40
2014,09,15,11,28,23.40
2014,09,15,11,29,23.40
2014,09,15,11,30,23.60
2014,09,15,11,31,23.70
2014,09,15,11,32,23.70
2014,09,15,11,33,23.70
2014,09,15,11,34,23.70
2014,09,15,11,35,23.70
2014,09,15,11,36,23.70
2014,09,15,11,37,23.70
2014,09,15,11,38,23.70
2014,09,15,11,39,23.70
2014,09,15,11,40,23.60
2014,09,15,11,41,23.50
2014,09,15,11,42,23.40
2014,09,15,11,43,23.40
2014,09,15,11,44,23.30
2014,09,15,11,45,23.30
2014,09,15,11,46,23.30
2014,09,15,11,47,23.30
2014,09,15,11,48,23.30
2014,09,15,11,49,23.30
2014,09,15,11,50,23.30
2014,09,15,11,51,23.30
2014,09,15,11,52,23.40
2014,09,15,11,53,23.60
2014,09,15,11,54,23.70
2014,09,15,11,55,23.70
2014,09,15,11,56,23.80
2014,09,15,11,57,23.80
2014,09,15,11,58,23.90
2014,09,15,11,59,23.90
2014,09,15,12,00,24.10
2014,09,15,12,01,24.10
2014,09,15,12,02,24.10
2014,09,15,12,03,24.10
2014,09,15,12,04,24.10
2014,09,15,12,05,24.10
2014,09,15,12,06,24.20
2014,09,15,12,07,24.10
2014,09,15,12,08,24.20
2014,09,15,12,09,24.30
2014,09,15,12,10,24.30
2014,09,15,12,11,24.30
2014,09,15,12,12,24.30
2014,09,15,12,13,24.40
2014,09,15,12,14,24.50
2014,09,15,12,15,24.40
2014,09,15,12,16,24.50
2014,09,15,12,17,24.50
2014,09,15,12,18,24.50
2014,09,15,12,19,24.40
2014,09,15,12,20,24.30
2014,09,15,12,21,24.30
2014,09,15,12,22,24.30
2014,09,15,12,23,24.30
2014,09,15,12,24,24.30
2014,09,15,12,25,24.30
2014,09,15,12,26,24.30
2014,09,15,12,27,24.30
2014,09,15,12,28,24.30
2014,09,15,12,29,24.20
2014,09,15,12,30,24.30
2014,09,15,12,31,24.30
2014,09,15,12,32,24.40
2014,09,15,12,33,24.50
2014,09,15,12,34,24.60
2014,09,15,12,35,24.50
2014,09,15,12,36,24.50
2014,09,15,12,37,24.50
2014,09,15,12,38,24.50
2014,09,15,12,39,24.50
2014,09,15,12,40,24.50
2014,09,15,12,41,24.50
2014,09,15,12,42,24.50
2014,09,15,12,43,24.50
2014,09,15,12,44,24.50
2014,09,15,12,45,24.50
2014,09,15,12,46,24.50
2014,09,15,12,47,24.60
2014,09,15,12,48,24.60
2014,09,15,12,49,24.70
2014,09,15,12,50,24.70
2014,09,15,12,51,24.80
2014,09,15,12,52,24.80
2014,09,15,12,53,24.90
2014,09,15,12,54,25.00
2014,09,15,12,55,25.10
2014,09,15,12,56,25.20
2014,09,15,12,57,25.30
2014,09,15,12,58,25.30
2014,09,15,12,59,25.30
2014,09,15,13,00,25.30
2014,09,15,13,01,25.20
2014,09,15,13,02,25.20
2014,09,15,13,03,25.20
2014,09,15,13,04,25.20
2014,09,15,13,05,25.20
2014,09,15,13,06,25.20
2014,09,15,13,07,25.20
2014,09,15,13,08,25.30
2014,09,15,13,09,25.30
2014,09,15,13,10,25.30
2014,09,15,13,11,25.30
2014,09,15,13,12,25.30
2014,09,15,13,13,25.20
2014,09,15,13,14,25.20
2014,09,15,13,15,25.20
2014,09,15,13,16,25.10
2014,09,15,13,17,25.10
2014,09,15,13,18,25.10
2014,09,15,13,19,25.10
2014,09,15,13,20,25.10
2014,09,15,13,21,25.20
2014,09,15,13,22,25.20
2014,09,15,13,23,25.30
2014,09,15,13,24,25.30
2014,09,15,13,25,25.40
2014,09,15,13,26,25.40
2014,09,15,13,27,25.50
2014,09,15,13,28,25.50
2014,09,15,13,29,25.50
2014,09,15,13,30,25.60
2014,09,15,13,31,25.70
2014,09,15,13,32,25.70
2014,09,15,13,33,25.80
2014,09,15,13,34,25.70
2014,09,15,13,35,25.70
2014,09,15,13,36,25.80
2014,09,15,13,37,25.80
2014,09,15,13,38,25.70
2014,09,15,13,39,25.70
2014,09,15,13,40,25.70
2014,09,15,13,41,25.70
2014,09,15,13,42,25.70
2014,09,15,13,43,25.70
2014,09,15,13,44,25.80
2014,09,15,13,45,25.80
2014,09,15,13,46,25.80
2014,09,15,13,47,25.70
2014,09,15,13,48,25.70
2014,09,15,13,49,25.60
2014,09,15,13,50,25.60
2014,09,15,13,51,25.50
2014,09,15,13,52,25.60
2014,09,15,13,53,25.70
2014,09,15,13,54,25.70
2014,09,15,13,55,25.80
2014,09,15,13,56,25.90
2014,09,15,13,57,26.00
2014,09,15,13,58,26.10
2014,09,15,13,59,26.10
2014,09,15,14,00,26.10
2014,09,15,14,01,26.20
2014,09,15,14,02,26.20
2014,09,15,14,03,26.20
2014,09,15,14,04,26.20
2014,09,15,14,05,26.20
2014,09,15,14,06,26.20
2014,09,15,14,07,26.20
2014,09,15,14,08,26.20
2014,09,15,14,09,26.30
2014,09,15,14,10,26.30
2014,09,15,14,11,26.30
2014,09,15,14,12,26.30
2014,09,15,14,13,26.30
2014,09,15,14,14,26.30
2014,09,15,14,15,26.40
2014,09,15,14,16,26.30
2014,09,15,14,17,26.30
2014,09,15,14,18,26.20
2014,09,15,14,19,26.20
2014,09,15,14,20,26.10
2014,09,15,14,21,26.20
2014,09,15,14,22,26.20
2014,09,15,14,23,26.20
2014,09,15,14,24,26.20
2014,09,15,14,25,26.10
2014,09,15,14,26,26.10
2014,09,15,14,27,26.10
2014,09,15,14,28,26.10
2014,09,15,14,29,26.00
2014,09,15,14,30,26.00
2014,09,15,14,31,26.00
2014,09,15,14,32,26.00
2014,09,15,14,33,25.90
2014,09,15,14,34,25.90
2014,09,15,14,35,25.90
2014,09,15,14,36,25.90
2014,09,15,14,37,25.90
2014,09,15,14,38,25.90
2014,09,15,14,39,25.90
2014,09,15,14,40,25.90
2014,09,15,14,41,25.90
2014,09,15,14,42,26.00
2014,09,15,14,43,26.00
2014,09,15,14,44,26.10
2014,09,15,14,45,26.10
2014,09,15,14,46,26.20
2014,09,15,14,47,26.20
2014,09,15,14,48,26.30
2014,09,15,14,49,26.40
2014,09,15,14,50,26.40
2014,09,15,14,51,26.60
2014,09,15,14,52,26.60
2014,09,15,14,53,26.60
2014,09,15,14,54,26.70
2014,09,15,14,55,26.80
2014,09,15,14,56,26.80
2014,09,15,14,57,26.80
2014,09,15,14,58,26.80
2014,09,15,14,59,26.70
2014,09,15,15,00,26.60
2014,09,15,15,01,26.40
2014,09,15,15,02,26.10
2014,09,15,15,03,25.80
2014,09,15,15,04,25.50
2014,09,15,15,05,25.20
2014,09,15,15,06,25.00
2014,09,15,15,07,24.80
2014,09,15,15,08,24.60
2014,09,15,15,09,24.50
2014,09,15,15,10,24.40
2014,09,15,15,11,24.30
2014,09,15,15,12,24.20
2014,09,15,15,13,24.20
2014,09,15,15,14,24.20
2014,09,15,15,15,24.30
2014,09,15,15,16,24.30
2014,09,15,15,17,24.40
2014,09,15,15,18,24.40
2014,09,15,15,19,24.50
2014,09,15,15,20,24.50
2014,09,15,15,21,24.60
2014,09,15,15,22,24.70
2014,09,15,15,23,24.80
2014,09,15,15,24,24.80
2014,09,15,15,25,24.80
2014,09,15,15,26,24.90
2014,09,15,15,27,24.90
2014,09,15,15,28,25.00
2014,09,15,15,29,25.10
2014,09,15,15,30,25.20
2014,09,15,15,31,25.20
2014,09,15,15,32,25.30
2014,09,15,15,33,25.30
2014,09,15,15,34,25.40
2014,09,15,15,35,25.50
2014,09,15,15,36,25.50
2014,09,15,15,37,25.60
2014,09,15,15,38,25.70
2014,09,15,15,39,25.60
2014,09,15,15,40,25.50
2014,09,15,15,41,25.40
2014,09,15,15,42,25.20
2014,09,15,15,43,25.00
2014,09,15,15,44,24.90
2014,09,15,15,45,24.80
2014,09,15,15,46,24.70
2014,09,15,15,47,24.60
2014,09,15,15,48,24.50
2014,09,15,15,49,24.40
2014,09,15,15,50,24.30
2014,09,15,15,51,24.30
2014,09,15,15,52,24.30
2014,09,15,15,53,24.30
2014,09,15,15,54,24.30
2014,09,15,15,55,24.20
2014,09,15,15,56,24.30
2014,09,15,15,57,24.20
2014,09,15,15,58,24.20
2014,09,15,15,59,24.20
2014,09,15,16,00,24.20
2014,09,15,16,01,24.10
2014,09,15,16,02,24.00
2014,09,15,16,03,23.80
2014,09,15,16,04,23.70
2014,09,15,16,05,23.70
2014,09,15,16,06,23.60
2014,09,15,16,07,23.60
2014,09,15,16,08,23.60
2014,09,15,16,09,23.50
2014,09,15,16,10,23.40
2014,09,15,16,11,23.40
2014,09,15,16,12,23.40
2014,09,15,16,13,23.40
2014,09,15,16,14,23.50
2014,09,15,16,15,23.60
2014,09,15,16,16,23.60
2014,09,15,16,17,23.70
2014,09,15,16,18,23.70
2014,09,15,16,19,23.70
2014,09,15,16,20,23.70
2014,09,15,16,21,23.80
2014,09,15,16,22,23.80
2014,09,15,16,23,23.80
2014,09,15,16,24,23.80
2014,09,15,16,25,23.80
2014,09,15,16,26,23.70
2014,09,15,16,27,23.70
2014,09,15,16,28,23.70
2014,09,15,16,29,23.70
2014,09,15,16,30,23.70
2014,09,15,16,31,23.70
2014,09,15,16,32,23.70
2014,09,15,16,33,23.70
2014,09,15,16,34,23.70
2014,09,15,16,35,23.70
2014,09,15,16,36,23.70
2014,09,15,16,37,23.80
2014,09,15,16,38,23.80
2014,09,15,16,39,23.80
2014,09,15,16,40,23.80
2014,09,15,16,41,23.90
2014,09,15,16,42,23.80
2014,09,15,16,43,23.80
2014,09,15,16,44,23.70
2014,09,15,16,45,23.70
2014,09,15,16,46,23.70
2014,09,15,16,47,23.70
2014,09,15,16,48,23.70
2014,09,15,16,49,23.70
2014,09,15,16,50,23.70
2014,09,15,16,51,23.70
2014,09,15,16,52,23.70
2014,09,15,16,53,23.70
2014,09,15,16,54,23.60
2014,09,15,16,55,23.50
2014,09,15,16,56,23.40
2014,09,15,16,57,23.30
2014,09,15,16,58,23.30
2014,09,15,16,59,23.30
2014,09,15,17,00,23.20
2014,09,15,17,01,23.20
2014,09,15,17,02,23.10
2014,09,15,17,03,23.10
2014,09,15,17,04,23.10
2014,09,15,17,05,23.10
2014,09,15,17,06,23.10
2014,09,15,17,07,23.10
2014,09,15,17,08,23.10
2014,09,15,17,09,23.10
2014,09,15,17,10,23.10
2014,09,15,17,11,23.20
2014,09,15,17,12,23.20
2014,09,15,17,13,23.20
2014,09,15,17,14,23.20
2014,09,15,17,15,23.10
2014,09,15,17,16,23.10
2014,09,15,17,17,23.10
2014,09,15,17,18,23.10
2014,09,15,17,19,23.10
2014,09,15,17,20,22.90
2014,09,15,17,21,22.90
2014,09,15,17,22,22.80
2014,09,15,17,23,22.70
2014,09,15,17,24,22.60
2014,09,15,17,25,22.50
2014,09,15,17,26,22.40
2014,09,15,17,27,22.30
2014,09,15,17,28,22.10
2014,09,15,17,29,22.10
2014,09,15,17,30,22.00
2014,09,15,17,31,21.90
2014,09,15,17,32,21.90
2014,09,15,17,33,21.80